Regional Weather Roundup
Issued by NWS

Home | Current Version | Previous Version | Text Only | Print | Product List | Glossary Off
Versions: 1 2 3 4 5 6 7 8 9 10 11 12 13 14 15 16 17 18 19 20 21 22 23 24 25 26 27 28 29 30 31 32 33 34 35 36 37 38 39 40 41 42 43 44 45 46 47 48 49 50

000
ASUS43 KIND 051209
RWRIN

WEATHER ROUNDUP FOR INDIANA
NATIONAL WEATHER SERVICE INDIANAPOLIS IN
800 AM EDT THU MAY 05 2016

NOTE: "FAIR" INDICATES FEW OR NO CLOUDS BELOW 12,000 FEET WITH NO
SIGNIFICANT WEATHER AND/OR OBSTRUCTIONS TO VISIBILITY.

* - STATION DOES NOT REPORT WEATHER SUCH AS PRECIPITATION OR FOG.

+ - STATION NOT QUALITY CONTROLLED BY THE NATIONAL WEATHER SERVICE.
    USE DATA WITH CAUTION...ESPECIALLY DEWPOINT AND RELATIVE
    HUMIDITY OBSERVATIONS.

INZ001>003-010>013-019-020-051300-
NORTHWEST INDIANA

CITY           SKY/WX    TMP DP  RH WIND       PRES   REMARKS
GARY /AIRPORT/ CLOUDY    43  43 100 N17       29.94R
KNOX *+        CLOUDY    43  39  87 N10       29.88R
LA PORTE +     CLOUDY    45  45 100 N13       29.89R
6HR MIN TEMP:  42; 6HR MAX TEMP:  45;

MICHIGAN CITY+ CLOUDY    41  41 100 N7        29.92R
MONTICELLO +   CLOUDY    43  40  88 N9        29.86R
6HR MIN TEMP:  40; 6HR MAX TEMP:  43;

RENSSELAER +   CLOUDY    43  41  93 N15G21    29.90R
VALPARAISO     CLOUDY    41  39  93 N14G21    29.90R
6HR MIN TEMP:  40; 6HR MAX TEMP:  42; 6HR PCP: TRACE;


$$

LMZ046-743>745-051300-
SOUTHERN LAKE MICHIGAN

STATION/POSITION TIME  TEMP    WIND        PRES    WAVE
                       AIR SEA DIR/SP/G            HT
                 (UTC) (F)     (DEG/KT/KT) (MB)    (FT)
BURNS HARBOR     1114   42     360/ 18/ 22 1013.2R
MICHIGAN CITY    1150   42     350/ 20/ 23   N/A

$$

INZ004-005-014>016-021>024-051300-
NORTH CENTRAL INDIANA

CITY           SKY/WX    TMP DP  RH WIND       PRES   REMARKS
ELKHART        CLOUDY    45  45 100 N9        29.87R
GOSHEN         CLOUDY    46  42  86 N15       29.85R
6HR MIN TEMP:  43; 6HR MAX TEMP:  47; 6HR PCP:  0.01;

LOGANSPORT +   DRIZZLE   43  43 100 NW6       29.86R
PERU/GRISSOM   DRIZZLE   43  43 100 NW5       29.83R
6HR MIN TEMP:  39; 6HR MAX TEMP:  43; 6HR PCP:  0.01;

ROCHESTER +    CLOUDY    46  46 100 N7        29.85R
SOUTH BEND     CLOUDY    44  42  93 N10       29.88R
6HR MIN TEMP:  41; 6HR MAX TEMP:  44; 6HR PCP:  0.01;

WARSAW +       CLOUDY    45  43  93 N7G17     29.85R

$$

INZ006>009-017-018-025>027-051300-
NORTHEAST INDIANA

CITY           SKY/WX    TMP DP  RH WIND       PRES   REMARKS
ANGOLA *+      CLOUDY    45  45 100 N10       29.83R
AUBURN +       CLOUDY    46  43  87 N14       29.83R
FORT WAYNE     CLOUDY    44  41  89 NW5       29.82R
6HR MIN TEMP:  39; 6HR MAX TEMP:  44; 6HR PCP: TRACE;

HUNTINGTON +   CLOUDY    42  41  96 NW3       29.82R

$$

INZ028-029-035-036-043>045-051>053-051300-
WEST CENTRAL INDIANA

CITY           SKY/WX    TMP DP  RH WIND       PRES   REMARKS
CRAWFORDSVL +  CLOUDY    41  41 100 N10G16    29.86R
6HR MIN TEMP:  39; 6HR MAX TEMP:  41;

GREENCASTLE +  CLOUDY    41  41 100 N13       29.84R
LAFAYETTE      CLOUDY    43  40  89 N12       29.87R
6HR MIN TEMP:  41; 6HR MAX TEMP:  43; 6HR PCP: TRACE;

TERRE HAUTE    CLOUDY    45  39  79 N12       29.86R
6HR MIN TEMP:  44; 6HR MAX TEMP:  47; 6HR PCP: TRACE;


$$

INZ030>032-037>040-046>048-054>057-064-065-051300-
CENTRAL INDIANA

CITY           SKY/WX    TMP DP  RH WIND       PRES   REMARKS
CP ATTERBURY + CLOUDY    43  41  93 N9        29.82R
COLUMBUS       LGT RAIN  41  41 100 NE13      29.81R FOG
FISHERS *+     PTSUNNY   39  39 100 CALM      29.84R
FRANKFORT +      N/A     44  43  97 N7        29.87R
6HR MIN TEMP:  41; 6HR MAX TEMP:  44; 6HR PCP:  0.01;

GREENWOOD *+   CLOUDY    41  37  87 NE13      29.83R
INDIANAPOLIS   PTSUNNY   43  38  82 NE12      29.82R
6HR MIN TEMP:  41; 6HR MAX TEMP:  43; 6HR PCP:  0.01;

-EAGLE CREEK   PTSUNNY   43  38  82 N10       29.83R
6HR MIN TEMP:  42; 6HR MAX TEMP:  43; 6HR PCP:  0.02;

KOKOMO *+      CLOUDY    43  37  81 N7        29.84R
6HR MIN TEMP:  41; 6HR MAX TEMP:  43;

MARION +       CLOUDY    40  38  93 N3        29.84R
SHELBYVILLE    CLOUDY    44  38  79 NE10      29.81R
6HR MIN TEMP:  43; 6HR MAX TEMP:  45; 6HR PCP:  0.04;

ZIONSVILLE +   PTSUNNY   41  38  89 N9        29.85R
6HR MIN TEMP:  40; 6HR MAX TEMP:  41; 6HR PCP:  0.01;


$$

INZ033-034-041-042-049-050-058-059-051300-
EAST CENTRAL INDIANA

CITY           SKY/WX    TMP DP  RH WIND       PRES   REMARKS
MUNCIE         CLOUDY    43  39  86 N10       29.82R
6HR MIN TEMP:  41; 6HR MAX TEMP:  43; 6HR PCP: TRACE;


$$

INZ060-061-067>069-081>083-085>088-051300-
SOUTHWEST INDIANA

CITY           SKY/WX    TMP DP  RH WIND       PRES   REMARKS
EVANSVILLE     PTSUNNY   46  37  71 N13G20    29.85R
6HR MIN TEMP:  46; 6HR MAX TEMP:  50;

HUNTINGBURG *+ CLOUDY    45  37  76 N10G16    29.83R
6HR MIN TEMP:  45; 6HR MAX TEMP:  48;

WASHINGTON +   CLOUDY    45  40  83 N13       29.84R
6HR MIN TEMP:  45; 6HR MAX TEMP:  50;


$$

INZ062-063-066-070>080-084-089>092-051300-
SOUTH CENTRAL AND SOUTHEAST INDIANA

CITY           SKY/WX    TMP DP  RH WIND       PRES   REMARKS
BEDFORD +      DRIZZLE   43  43 100 N6        29.82R
BLOOMINGTON    CLOUDY    43  40  89 N9G16     29.82R FOG
6HR MIN TEMP:  42; 6HR MAX TEMP:  47; 6HR PCP:  0.01;

MADISON *+     MOSUNNY   43  39  87 N3        29.81R
NORTH VERNON + CLOUDY   N/A N/A N/A CALM      29.81R
SEYMOUR +      CLOUDY    45  41  87 CALM      29.81

$$





USA.gov is the U.S. government's official web portal to all federal, state and local government web resources and services.